Regional Weather Roundup
Issued by NWS

Home | Current Version | Previous Version | Text Only | Print | Product List | Glossary On
Versions: 1 2 3 4 5 6 7 8 9 10 11 12 13 14 15 16 17 18 19 20 21 22 23 24 25 26 27 28 29 30 31 32 33 34 35 36 37 38 39 40 41 42 43 44 45 46 47 48 49 50
000
ASUS44 KLUB 070810
RWRTX
WEST TEXAS WEATHER ROUNDUP
NATIONAL WEATHER SERVICE LUBBOCK TX
200 AM CST WED DEC 07 2016

NOTE: "FAIR" INDICATES FEW OR NO CLOUDS BELOW 12,000 FEET WITH NO
SIGNIFICANT WEATHER AND/OR OBSTRUCTIONS TO VISIBILITY.

TXZ004-006>008-010-012-014-016-OKZ002-070900-
TEXAS PANHANDLE/OKLAHOMA PANHANDLE

CITY           SKY/WX    TMP DP  RH WIND       PRES   REMARKS
AMARILLO       CLOUDY    24  16  71 SE12      29.95F WCI  13
BORGER         CLOUDY    26  14  60 S9        29.97S WCI  17
CANADIAN       CLOUDY    28  19  70 SE9       30.02S WCI  19
DALHART        CLOUDY    17  11  77 E5        29.90F WCI  10
DUMAS          CLOUDY    21  12  68 S9        29.92F WCI  11
GUYMON         CLOUDY    21  12  68 SE9       29.95S WCI  11
HEREFORD       CLOUDY    28  20  71 S12       29.93F WCI  18
PAMPA          CLOUDY    27  18  69 SE15      29.96F WCI  15
PERRYTON       CLEAR     25  18  72 SE8       29.98R WCI  17
$$

TXZ026-029-035-045-048-070900-
SOUTHERN PANHANDLE/SOUTH PLAINS/ROLLING PLAINS

CITY           SKY/WX    TMP DP  RH WIND       PRES   REMARKS
CHILDRESS      CLEAR     30  23  75 E5        30.04S WCI  25
SEMINOLE       CLOUDY    30  29  96 CALM      29.97F
LUBBOCK        PTCLDY    29  25  85 SE9       29.95F WCI  20
PLAINVIEW      CLOUDY    26  22  85 SE7       29.95S WCI  18
SNYDER         CLOUDY    35  32  87 E5        30.02S WCI  31
$$

TXZ052-054-060>062-072-078-127-140-154-169-070900-
PERMIAN BASIN/CONCHO VALLEY/BIG COUNTRY/EDWARDS PLATEAU

CITY           SKY/WX    TMP DP  RH WIND       PRES   REMARKS
ABILENE        CLEAR     33  31  92 S6        30.03F WCI  28
BIG SPRING     CLEAR     33  32  94 E3        30.02S
BROWNWOOD      HVY SNOW  34  34 100 CALM      30.05F VSB<1/4
JUNCTION       CLOUDY    43  40  89 S5        30.02F
MIDLAND        MOCLDY    36  33  89 SE12      29.97F WCI  28
ODESSA         PTCLDY    36  32  85 SE8       29.97F WCI  30
SAN ANGELO     CLOUDY    39  38  96 CALM      30.01F
SONORA         CLOUDY    41  39  93 E5        30.05S
SWEETWATER     CLEAR     36  31  82 CALM      30.03F
WINK           CLOUDY    36  34  92 E5        29.95F WCI  32
$$

TXZ055-058-074-075-080-082-070900-
FAR WEST/SOUTHWEST MOUNTAINS/TRANS PECOS

CITY           SKY/WX    TMP DP  RH WIND       PRES   REMARKS
ALPINE         CLEAR     49  36  60 SW8       30.02S
DRYDEN           N/A     41  39  93 NE3       29.98F
EL PASO        MOCLDY    55  29  36 CALM      29.94R
FORT STOCKTON  CLEAR     38  35  89 SW6       29.94F WCI  33
MARFA          CLOUDY    32  30  92 N6        29.99F WCI  26
PECOS          CLEAR     36  34  91 CALM      29.97S
PRESIDIO       FAIR      51  40  67 N7        29.94S
$$

TXZ014-016-019-021>030-083-070900
TEXAS TECH WEST TEXAS MESONET/TEXAS PANHANDLE/NORTHERN SOUTH PLAINS

CITY           SKY/WX    TMP DP  RH WIND       PRES   REMARKS
ABERNATHY 5ENE   N/A     28  25  91 SE9       29.99S WCI  19
AMARILLO 9NNE    N/A     24  15  67 SE8       29.96F WCI  15
AMARILLO 7SSE    N/A     25  15  65 SE12      29.96S WCI  15
AMHERST 1NE      N/A     27  22  82 SE8       29.95S WCI  19
BOOTLEG 11WNW    N/A     26  21  80 S18       29.91S WCI  13
CANADIAN 6E      N/A     23  16  75 E8        30.01F WCI  14
CAPROCK CYN SP   N/A     28  22  80 S7        30.02S WCI  20
CHILDRESS 2NNE   N/A     28  23  82 E9        30.05R WCI  19
CLARENDON 2WSW   N/A     25  19  76 SE7       30.02R WCI  18
CLAUDE 12SW      N/A     24  15  69 SE7       29.97R WCI  16
DIMMITT 2NE      N/A     24  20  83 SE12      29.94S WCI  13
FLOYDADA 2NNE    N/A     24  23  93 SE5       29.98S WCI  19
FRIONA 2NE       N/A     26  22  83 S15       29.92F WCI  14
GOODLETT 3W      N/A     30  24  79 NE5       30.05R WCI  25
HART 3N          N/A     24  20  83 SE6       29.96S WCI  17
HEREFORD 2NW     N/A     26  18  72 S9        29.95S WCI  17
MCLEAN 1E        N/A     25  17  71 E7        30.00S WCI  17
MEMPHIS 1NE      N/A     26  22  84 NE1       30.05S
MULESHOE 2SSW    N/A     21  19  93 E1        29.95S
OLTON 6S         N/A     26  22  85 SE9       29.97R WCI  17
PALO DURO SP     N/A     28  15  60 S9        29.98R WCI  19
PAMPA 2E         N/A     22  17  78 SE9       29.98F WCI  12
PLAINVIEW 1S     N/A     27  23  86 SE7       29.97F WCI  19
SILVERTON 7ESE   N/A     25  19  78 SE7       29.98S WCI  17
TULIA 2ENE       N/A     23  21  91 SE7       29.98S WCI  15
TURKEY 2WSW      N/A     29  24  80 SE3       30.03S
UMBARGER 3NNE    N/A     25  17  72 S12       29.94S WCI  14
$$

TXZ033>036-039>041-045>048-070900
TEXAS TECH WEST TEXAS MESONET/SOUTH PLAINS

CITY           SKY/WX    TMP DP  RH WIND       PRES   REMARKS
AIKEN 3WSW       N/A     26  23  89 SE8       29.99S WCI  17
ANDREWS 2NE      N/A     32  30  92 SE6       29.99S WCI  26
ANTON 6SSW       N/A     26  24  92 SE7       29.98R WCI  19
BROWNFIELD 2S    N/A     29  27  91 S7        29.99S WCI  22
DENVR CTY 7WNW   N/A     27  26  94 SE3       29.96F
GAIL 2ESE        N/A     30  27  89 E3        30.01S
LAMESA 2SE       N/A     31  29  93 SE6       30.00S WCI  26
LEVELLAND 4S     N/A     29  25  86 SE8       29.96F WCI  21
LUBBOCK 3WNW     N/A     31  27  84 SE9       29.99S WCI  23
MORTON 1ENE      N/A     29  24  82 SE8       29.94F WCI  21
ODONNELL 1N      N/A     32  28  87 SE8       29.99F WCI  24
PLAINS 3N        N/A     28  27  96 SE6       29.96F WCI  21
RALLS 1SE        N/A     29  24  81 SE6       30.00S WCI  23
REESE CENTER     N/A     30  25  82 SE12      29.98S WCI  20
SEAGRAVES 1SW    N/A     31  29  93 SE7       29.98S WCI  24
SEMINOLE 2NNE    N/A     29  27  92 SE3       29.98S
SLATON 2NE       N/A     30  26  86 SE9       29.99F WCI  22
SNYDER 3E        N/A     36  29  77 E8        30.02S WCI  30
SUNDOWN 8SW      N/A     26  23  91 SE8       29.96S WCI  17
TAHOKA 3NNE      N/A     29  26  88 E5        29.99F WCI  24
WOLFFORTH 6SSW   N/A     28  25  86 SE6       29.98F WCI  22
$$

TXZ031-032-036>038-042>044-070900-
TEXAS TECH WEST TEXAS MESONET/ROLLING PLAINS

CITY           SKY/WX    TMP DP  RH WIND       PRES   REMARKS
ASPERMONT 3NE    N/A     32  29  91 NW1       30.05S
FLUVANNA 3WNW    N/A     31  28  86 SE6       30.01S WCI  26
GRAHAM 5SSW      N/A     31  26  84 SE6       30.00F WCI  25
GUTHRIE 10WSW    N/A     30  26  84 CALM      30.03F
HASKELL 1NW      N/A     33  26  75 E5        30.05S WCI  29
JAYTON 1SSE      N/A     32  29  89 SE2       30.03F
KNOX CITY 3NW    N/A     33  28  81 E2        30.06F
LK A HENRY 1NW   N/A     32  27  80 SE7       30.02F WCI  26
NORTHFIELD 1S    N/A     28  23  81 SE6       30.04S WCI  22
ODELL 4ENE       N/A     31  24  77 E6        30.07S WCI  25
PADUCAH 10SW     N/A     30  25  84 SE5       30.04S WCI  25
POST 1NE         N/A     30  26  84 SE3       30.01F
RRING SPRGS 3N   N/A     28  24  85 S5        30.02R WCI  22
SEYMOUR 3NW      N/A     32  28  85 CALM      30.07R
SPUR 1W          N/A     28  26  93 CALM      30.02F
WEINERT 2NNE     N/A     30  27  89 E2        30.06S
WHITE RVR 6NE    N/A     30  23  76 E7        30.00F WCI  23
$$

TXZ052-054-060>062-072-078-127-140-154-169-070900-
TEXAS TECH WEST TEXAS MESONET/PERMIAN BASIN/
CONCHO VALLEY/BIG COUNTRY/EDWARDS PLATEAU

CITY           SKY/WX    TMP DP  RH WIND       PRES   REMARKS
COYANOSA 2N      N/A     37  36  95 E7        29.97S WCI  32
JUNCTION 1SSW    N/A     43  40  91 SE2       30.05S
MERTZON 3NNE     N/A     39  37  94 SE6       30.03F WCI  34
SAN ANGELO 7NW   N/A     38  35  92 CALM      30.03F
STRLNG CT 4WSW   N/A     28  26  95 E2        30.02F
ST LAWRNCE 5SW   N/A     36  35  95 SE12      30.00S WCI  28
SWEETWATR 11SW   N/A     32  29  90 SE5       30.02S WCI  27
WALL 1E          N/A     37  35  91 CALM      30.05S
$$

TXZ055-058-074-075-080-082-070900-
TEXAS TECH WEST TEXAS MESONET/FAR WEST/SOUTHWEST MOUNTAINS/TRANS PECOS

CITY           SKY/WX    TMP DP  RH WIND       PRES   REMARKS
PRSMN GAP BBNP   N/A     43  38  84 NE10      29.99S
GUADLPE MTN NP   N/A     51  26  37 W41G49    29.91F
$$




USA.gov is the U.S. government's official web portal to all federal, state and local government web resources and services.